Latest Weather Observations for Larapuna (Eddystone Point)

IDT60801

Issued at 2:05 pm EST Monday 22 September 2014 (issued every 30 minutes, with the page automatically refreshed every 10 minutes)

About weather observations | Map of weather stations | Latest weather observations for TAS | Other Formats
Station Details ID: 092045 Name: LARAPUNA (EDDYSTONE POINT) Lat: -40.99 Lon: 148.35 Height: 19.7 m
Data from the previous 72 hours. | See also: Recent months at Larapuna (Eddystone Point)
Date/Time
EST
Temp
°C
App
Temp
°C
Dew
Point
Rel
Hum
%
Delta-T
°C
Wind Press
QNH
hPa
Press
MSL
hPa
Rain
since 9 am
mm
Dir
 
Spd
km/h
Gust
km/h
Spd
kts
Gust
kts
22/02:00pm 17.0 10.5 8.2 56 4.5 NW 32 46 17 25 1026.0 1026.1 0.0
22/01:30pm 16.9 10.1 7.5 54 4.7 NW 33 44 18 24 1026.3 1026.4 0.0
22/01:00pm 17.1 9.4 6.9 51 5.0 NW 37 50 20 27 1026.5 1026.6 0.0
22/12:30pm 17.4 10.9 8.3 55 4.7 NW 32 43 17 23 1026.7 1026.8 0.0
22/12:00pm 17.3 11.4 9.0 58 4.3 NW 30 43 16 23 1027.0 1027.1 0.0
22/11:30am 16.8 11.2 10.0 64 3.6 NW 30 41 16 22 1027.3 1027.4 0.0
22/11:00am 16.2 10.4 9.6 65 3.4 NW 30 41 16 22 1027.6 1027.7 0.0
22/10:30am 15.5 9.7 9.6 68 3.1 NW 30 39 16 21 1027.9 1028.0 0.0
22/10:00am 15.3 10.1 10.3 72 2.6 NW 28 39 15 21 1028.1 1028.2 0.0
22/09:30am 14.0 8.3 11.0 82 1.6 NW 32 41 17 22 1028.5 1028.6 0.0
22/09:00am 13.1 8.3 11.8 92 0.7 WNW 28 39 15 21 1028.7 1028.8 0.0
22/08:30am 11.7 7.1 10.9 95 0.4 NW 26 37 14 20 1029.0 1029.1 0.0
22/08:00am 10.5 5.9 9.7 95 0.4 NW 24 33 13 18 1028.7 1028.8 0.0
22/07:30am 10.0 6.0 9.2 95 0.4 NW 20 30 11 16 1028.6 1028.7 0.0
22/07:00am 9.5 5.0 8.6 94 0.4 NW 22 28 12 15 1028.6 1028.7 0.0
22/06:30am 8.6 4.2 7.5 93 0.5 WNW 20 26 11 14 1028.4 1028.5 0.0
22/06:00am 8.0 3.4 6.6 91 0.6 WNW 20 24 11 13 1028.1 1028.2 0.0
22/05:30am 7.8 3.0 5.6 86 1.0 WNW 20 24 11 13 1027.9 1028.0 0.0
22/05:00am 7.9 2.9 4.8 81 1.4 WNW 20 24 11 13 1027.7 1027.8 0.0
22/04:30am 8.0 2.7 5.1 82 1.3 WNW 22 24 12 13 1027.5 1027.6 0.0
22/04:00am 8.2 2.9 5.1 81 1.4 WNW 22 24 12 13 1027.1 1027.2 0.0
22/03:30am 9.0 4.3 6.1 82 1.3 NW 20 22 11 12 1027.0 1027.1 0.0
22/03:00am 8.5 4.4 6.3 86 1.0 NW 17 19 9 10 1027.1 1027.2 0.0
22/02:30am 9.1 6.6 6.4 83 1.2 NW 9 11 5 6 1027.3 1027.4 0.0
22/02:00am 9.6 7.2 7.0 84 1.2 NW 9 15 5 8 1027.3 1027.4 0.0
22/01:30am 9.8 6.0 7.6 86 1.1 WNW 17 19 9 10 1027.4 1027.5 0.0
22/01:00am 9.7 5.7 8.3 91 0.7 NW 19 24 10 13 1027.7 1027.8 0.0
22/12:30am 9.4 5.8 8.2 92 0.6 NW 17 19 9 10 1027.7 1027.8 0.0
22/12:00am 9.5 5.9 8.3 92 0.6 NW 17 20 9 11 1027.7 1027.8 0.0
 
Date/Time
EST
Temp
°C
App
Temp
°C
Dew
Point
Rel
Hum
%
Delta-T
°C
Wind Press
QNH
hPa
Press
MSL
hPa
Rain
since 9 am
mm
Dir
 
Spd
km/h
Gust
km/h
Spd
kts
Gust
kts
21/11:30pm 10.2 6.8 9.0 92 0.6 NNW 17 19 9 10 1027.8 1027.9 0.0
21/11:00pm 10.4 6.6 9.2 92 0.6 NW 19 20 10 11 1027.8 1027.9 0.0
21/10:30pm 10.4 7.4 9.2 92 0.6 NW 15 19 8 10 1027.8 1027.9 0.0
21/10:00pm 10.8 7.1 9.6 92 0.6 NW 19 22 10 12 1027.9 1028.0 0.0
21/09:30pm 10.8 7.5 9.4 91 0.7 NW 17 20 9 11 1028.0 1028.1 0.0
21/09:00pm 11.1 7.4 9.5 90 0.8 NW 19 24 10 13 1027.9 1028.0 0.0
21/08:30pm 11.4 7.8 9.7 89 0.9 NW 19 22 10 12 1027.8 1027.9 0.0
21/08:00pm 11.4 7.7 9.5 88 1.0 WNW 19 24 10 13 1027.7 1027.8 0.0
21/07:30pm 11.7 8.0 9.4 86 1.2 NW 19 26 10 14 1027.6 1027.7 0.0
21/07:00pm 12.0 7.9 8.7 80 1.6 NW 20 24 11 13 1027.4 1027.5 0.0
21/06:30pm 12.5 8.2 8.0 74 2.2 NW 20 26 11 14 1027.2 1027.3 0.0
21/06:00pm 13.4 9.1 8.0 70 2.7 NW 20 28 11 15 1026.8 1026.9 0.0
21/05:30pm 14.7 10.4 8.0 64 3.3 NW 20 28 11 15 1026.8 1026.9 0.0
21/05:00pm 15.9 11.9 8.2 60 3.9 WNW 19 24 10 13 1026.6 1026.7 0.0
21/04:30pm 16.5 12.5 8.2 58 4.2 NW 19 24 10 13 1026.6 1026.7 0.0
21/04:00pm 16.7 13.2 8.7 59 4.1 NNW 17 24 9 13 1026.5 1026.6 0.0
21/03:30pm 16.6 13.1 8.6 59 4.1 NNW 17 22 9 12 1026.3 1026.4 0.0
21/03:00pm 16.0 11.3 9.2 64 3.5 N 24 32 13 17 1026.2 1026.3 0.0
21/02:30pm 15.9 11.2 9.3 65 3.4 N 24 32 13 17 1026.2 1026.3 0.0
21/02:00pm 16.3 11.6 9.3 63 3.6 N 24 30 13 16 1026.2 1026.3 0.0
21/01:30pm 16.2 12.2 10.5 69 3.0 N 22 28 12 15 1026.4 1026.5 0.0
21/01:00pm 14.6 10.0 9.6 72 2.6 N 24 32 13 17 1026.4 1026.5 0.0
21/12:30pm 14.2 9.9 9.2 72 2.6 N 22 30 12 16 1026.6 1026.7 0.0
21/12:00pm 14.7 10.0 9.3 70 2.8 N 24 30 13 16 1026.9 1027.0 0.0
21/11:30am 14.1 9.2 8.3 68 2.9 N 24 30 13 16 1027.2 1027.3 0.0
21/11:00am 14.2 10.2 9.0 71 2.6 N 20 26 11 14 1027.4 1027.5 0.0
21/10:30am 14.3 10.7 8.3 67 3.0 N 17 20 9 11 1027.6 1027.7 0.0
21/10:00am 12.6 8.2 7.5 71 2.5 NNW 20 24 11 13 1027.5 1027.6 0.0
21/09:30am 12.9 9.0 8.8 76 2.1 NNW 19 24 10 13 1027.6 1027.7 0.0
21/09:00am 12.4 9.6 8.7 78 1.8 NNW 13 17 7 9 1027.6 1027.7 0.0
21/08:30am 12.1 9.6 8.4 78 1.8 NNW 11 15 6 8 1027.4 1027.5 0.0
21/08:00am 11.4 9.6 8.1 80 1.6 WNW 7 9 4 5 1027.7 1027.8 0.0
21/07:30am 10.5 8.3 7.7 83 1.3 SSW 9 11 5 6 1027.6 1027.7 0.0
21/07:00am 9.5 7.5 6.9 84 1.2 SW 7 9 4 5 1027.3 1027.4 0.0
21/06:30am 8.0 3.9 6.0 87 0.9 W 17 20 9 11 1026.6 1026.7 0.0
21/06:00am 7.1 2.8 5.1 87 0.9 W 17 20 9 11 1026.5 1026.6 0.0
21/05:30am 7.0 2.6 4.7 85 1.0 W 17 20 9 11 1026.4 1026.5 0.0
21/05:00am 6.5 2.7 4.0 84 1.1 WSW 13 17 7 9 1026.3 1026.4 0.0
21/04:30am 6.5 2.7 3.8 83 1.1 WSW 13 15 7 8 1025.8 1025.9 0.0
21/04:00am 7.6 4.8 5.2 85 1.1 SW 9 11 5 6 1025.6 1025.7 0.0
21/03:30am 7.9 5.2 5.5 85 1.1 WSW 9 11 5 6 1025.2 1025.3 0.0
21/03:00am 8.3 5.7 6.1 86 1.0 WSW 9 9 5 5 1025.3 1025.4 0.0
21/02:30am 8.1 5.5 6.2 88 0.9 SW 9 13 5 7 1025.3 1025.4 0.0
21/02:00am 9.2 5.3 7.3 88 0.9 SSW 17 20 9 11 1025.6 1025.7 0.0
21/01:30am 10.2 6.6 8.5 89 0.8 SSW 17 24 9 13 1025.5 1025.6 0.0
21/01:00am 10.3 6.2 8.6 89 0.8 S 20 24 11 13 1025.7 1025.8 0.0
21/12:30am 10.7 6.7 9.1 90 0.8 S 20 22 11 12 1025.6 1025.7 0.0
21/12:00am 10.7 6.9 9.0 89 0.8 SSW 19 20 10 11 1025.5 1025.6 0.0
 
Date/Time
EST
Temp
°C
App
Temp
°C
Dew
Point
Rel
Hum
%
Delta-T
°C
Wind Press
QNH
hPa
Press
MSL
hPa
Rain
since 9 am
mm
Dir
 
Spd
km/h
Gust
km/h
Spd
kts
Gust
kts
20/11:30pm 10.7 6.9 9.0 89 0.8 S 19 22 10 12 1025.3 1025.4 0.0
20/11:00pm 10.9 6.6 9.2 89 0.8 S 22 24 12 13 1025.4 1025.5 0.0
20/10:30pm 11.0 6.7 9.3 89 0.9 S 22 26 12 14 1025.5 1025.6 0.0
20/10:00pm 10.9 6.5 9.0 88 0.9 S 22 26 12 14 1025.4 1025.5 0.0
20/09:30pm 10.5 6.9 8.4 87 1.0 SSW 17 19 9 10 1025.0 1025.1 0.0
20/09:00pm 10.5 7.6 8.3 86 1.1 SW 13 15 7 8 1024.8 1024.9 0.0
20/08:30pm 11.7 7.7 9.1 84 1.3 S 20 24 11 13 1024.9 1025.0 0.0
20/08:00pm 11.9 8.1 8.9 82 1.5 S 19 24 10 13 1024.8 1024.9 0.0
20/07:30pm 12.4 7.4 9.4 82 1.5 S 26 30 14 16 1024.7 1024.8 0.0
20/07:00pm 12.4 6.6 9.4 82 1.5 S 30 35 16 19 1024.6 1024.7 0.0
20/06:30pm 12.1 6.5 8.9 81 1.6 SSW 28 32 15 17 1024.1 1024.2 0.0
20/06:00pm 12.4 6.4 8.5 77 1.9 SSW 30 35 16 19 1023.9 1024.0 0.0
20/05:30pm 13.3 7.7 8.8 74 2.3 SSW 28 32 15 17 1023.6 1023.7 0.0
20/05:00pm 15.1 12.6 9.7 70 2.8 SW 13 17 7 9 1023.1 1023.2 0.0
20/04:30pm 15.4 12.9 9.7 69 3.0 WSW 13 19 7 10 1022.8 1022.8 0.0
20/04:00pm 16.4 9.8 6.0 50 5.0 NW 30 37 16 20 1022.5 1022.5 0.0
20/03:30pm 16.5 10.5 5.2 47 5.4 NW 26 33 14 18 1022.3 1022.3 0.0
20/03:00pm 18.3 11.1 3.0 36 7.1 NW 30 41 16 22 1022.0 1022.0 0.0
20/02:30pm 18.7 11.9 2.9 35 7.3 NW 28 35 15 19 1021.9 1021.9 0.0
20/02:00pm 18.9 12.8 5.0 40 6.7 NW 26 35 14 19 1021.8 1021.8 0.0
20/01:30pm 18.0 12.9 7.7 51 5.2 N 24 32 13 17 1022.0 1022.0 0.0
20/01:00pm 16.2 11.5 10.7 70 2.9 N 26 32 14 17 1022.2 1022.2 0.0
20/12:30pm 15.7 10.8 10.0 69 3.0 N 26 35 14 19 1022.5 1022.5 0.0
20/12:00pm 15.5 10.4 9.2 66 3.2 N 26 32 14 17 1022.9 1022.9 0.0
20/11:30am 15.9 11.8 8.6 62 3.7 N 20 26 11 14 1023.0 1023.1 0.0
20/11:00am 15.5 11.3 7.3 58 4.0 NNE 19 22 10 12 1023.3 1023.4 0.0
20/10:30am 15.0 11.9 7.1 59 3.9 NNE 13 17 7 9 1023.6 1023.7 0.0
20/10:00am 15.1 12.0 7.4 60 3.8 NNE 13 15 7 8 1023.6 1023.7 0.0
20/09:30am 16.0 13.5 6.7 54 4.6 NE 9 9 5 5 1023.8 1023.9 0.0
20/09:00am 15.5 13.2 4.8 49 5.0 E 6 9 3 5 1023.7 1023.8 0.0
20/08:30am 14.5 12.6 4.8 52 4.5 SSW 4 6 2 3 1023.6 1023.7 0.0
20/08:00am 13.3 11.4 6.6 64 3.2 WSW 6 7 3 4 1023.3 1023.4 0.0
20/07:30am 11.5 8.7 5.2 65 2.9 W 9 13 5 7 1023.0 1023.1 0.0
20/07:00am 9.5 5.8 4.3 70 2.3 WSW 13 17 7 9 1022.6 1022.6 0.0
20/06:30am 7.5 3.6 3.6 76 1.7 WSW 13 15 7 8 1022.1 1022.1 0.0
20/06:00am 7.9 4.1 3.9 76 1.7 WSW 13 15 7 8 1021.7 1021.7 0.0
20/05:30am 8.0 2.8 3.8 75 1.8 WNW 20 24 11 13 1021.0 1021.0 0.0
20/05:00am 7.6 2.4 3.6 76 1.7 W 20 24 11 13 1020.7 1020.7 0.0
20/04:30am 8.1 2.2 3.9 75 1.8 WNW 24 32 13 17 1020.4 1020.4 0.0
20/04:00am 8.2 4.4 4.0 75 1.8 SW 13 17 7 9 1020.2 1020.2 0.0
20/03:30am 8.6 4.1 4.0 73 2.0 W 17 26 9 14 1020.1 1020.1 0.0
20/03:00am 7.7 3.5 3.9 77 1.6 W 15 20 8 11 1019.7 1019.7 0.0
20/02:30am 8.8 5.1 4.6 75 1.9 SW 13 19 7 10 1019.7 1019.7 0.0
20/02:00am 8.5 4.7 4.1 74 1.9 WSW 13 17 7 9 1019.6 1019.6 0.0
20/01:30am 8.3 4.1 3.8 73 1.9 W 15 20 8 11 1019.8 1019.8 0.0
20/01:00am 8.9 5.2 4.5 74 1.9 WSW 13 17 7 9 1019.8 1019.8 0.0
20/12:30am 8.8 5.4 4.0 72 2.1 W 11 15 6 8 1019.4 1019.4 0.0
20/12:00am 9.4 6.7 5.8 78 1.6 WSW 9 15 5 8 1019.1 1019.1 0.0
 
Date/Time
EST
Temp
°C
App
Temp
°C
Dew
Point
Rel
Hum
%
Delta-T
°C
Wind Press
QNH
hPa
Press
MSL
hPa
Rain
since 9 am
mm
Dir
 
Spd
km/h
Gust
km/h
Spd
kts
Gust
kts
19/11:30pm 8.5 4.9 4.9 78 1.6 WSW 13 15 7 8 1019.0 1019.0 0.0
19/11:00pm 8.8 5.6 5.0 77 1.7 W 11 15 6 8 1018.9 1018.9 0.0
19/10:30pm 9.5 6.5 6.0 79 1.6 SW 11 15 6 8 1018.8 1018.8 0.0
19/10:00pm 9.4 6.0 5.8 78 1.6 WSW 13 17 7 9 1018.6 1018.6 0.0
19/09:30pm 9.9 5.7 5.9 76 1.8 W 17 24 9 13 1018.3 1018.3 0.0
19/09:00pm 9.8 5.7 6.2 78 1.7 WNW 17 20 9 11 1018.2 1018.2 0.0
19/08:30pm 10.5 5.9 6.6 77 1.8 W 20 28 11 15 1018.0 1018.0 0.0
19/08:00pm 10.4 5.5 7.1 80 1.6 WNW 22 28 12 15 1017.7 1017.7 0.0
19/07:30pm 10.7 5.9 7.4 80 1.6 WNW 22 28 12 15 1017.3 1017.3 0.0
19/07:00pm 11.2 6.1 7.5 78 1.8 WNW 24 30 13 16 1016.9 1016.9 0.0
19/06:30pm 11.3 6.1 7.2 76 2.0 WNW 24 28 13 15 1016.5 1016.5 0.0
19/06:00pm 11.6 7.1 7.1 74 2.2 WNW 20 26 11 14 1016.3 1016.3 0.0
19/05:30pm 12.0 7.5 7.1 72 2.4 WNW 20 26 11 14 1016.2 1016.2 0.0
19/05:00pm 12.6 8.4 7.3 70 2.6 WNW 19 24 10 13 1015.9 1015.9 0.0
19/04:30pm 13.0 8.7 7.7 70 2.6 WNW 20 28 11 15 1015.7 1015.7 0.0
19/04:00pm 13.0 8.8 8.1 72 2.4 WNW 20 30 11 16 1015.6 1015.6 0.0
19/03:30pm 13.2 9.0 8.1 71 2.5 NW 20 26 11 14 1015.4 1015.4 0.0
19/03:00pm 13.4 9.1 7.8 69 2.8 WNW 20 28 11 15 1015.3 1015.3 0.0
19/02:30pm 13.7 8.9 7.2 65 3.2 W 22 33 12 18 1015.2 1015.2 0.0

Other Formats:

Comma delimited format used in spreadsheet applications
http://www.bom.gov.au/fwo/IDT60801/IDT60801.94983.axf

JavaScript Object Notation format (JSON) in row-major order
http://www.bom.gov.au/fwo/IDT60801/IDT60801.94983.json